Regional Weather Roundup
Issued by NWS

Home | Current Version | Previous Version | Graphics & Text | Print | Product List | Glossary Off
Versions: 1 2 3 4 5 6 7 8 9 10 11 12 13 14 15 16 17 18 19 20 21 22 23 24 25 26 27 28 29 30 31 32 33 34 35 36 37 38 39 40 41 42 43 44 45 46 47 48 49 50

000
ASUS43 KIND 271909
RWRIN

WEATHER ROUNDUP FOR INDIANA
NATIONAL WEATHER SERVICE INDIANAPOLIS IN
300 PM EDT THU AUG 27 2015

NOTE: "FAIR" INDICATES FEW OR NO CLOUDS BELOW 12,000 FEET WITH NO
SIGNIFICANT WEATHER AND/OR OBSTRUCTIONS TO VISIBILITY.

* - STATION DOES NOT REPORT WEATHER SUCH AS PRECIPITATION OR FOG.

+ - STATION NOT QUALITY CONTROLLED BY THE NATIONAL WEATHER SERVICE.
    USE DATA WITH CAUTION...ESPECIALLY DEWPOINT AND RELATIVE
    HUMIDITY OBSERVATIONS.

INZ001>003-010>013-019-020-272000-
NORTHWEST INDIANA

CITY           SKY/WX    TMP DP  RH WIND       PRES   REMARKS
GARY /AIRPORT/ CLOUDY    70  54  56 CALM      30.19F
KNOX *+        SUNNY     72  52  49 CALM      30.18S
LA PORTE +     CLOUDY    69  55  61 CALM      30.19F
MICHIGAN CITY+ CLOUDY    68  52  56 S5        30.19F
MONTICELLO +   MOSUNNY   73  58  60 CALM      30.17S
RENSSELAER +   MOSUNNY   72  57  60 CALM      30.18S
VALPARAISO     PTSUNNY   70  55  59 N3        30.19F

$$

LMZ046-743>745-272000-
SOUTHERN LAKE MICHIGAN

STATION/POSITION TIME  TEMP    WIND        PRES    WAVE
                       AIR SEA DIR/SP/G            HT
                 (UTC) (F)     (DEG/KT/KT) (MB)    (FT)
BURNS HARBOR     1800   66     330/  6/  7 1023.0R
MICHIGAN CITY    1800   67     320/  5/  6   N/A
5NW MICH CITY    1900   67 71   10/  2/  4   N/A     1

$$

INZ004-005-014>016-021>024-272000-
NORTH CENTRAL INDIANA

CITY           SKY/WX    TMP DP  RH WIND       PRES   REMARKS
ELKHART        PTSUNNY   66  52  59 CALM      30.19S
GOSHEN         CLOUDY    69  54  58 CALM      30.18S
LOGANSPORT +   PTSUNNY   72  52  49 CALM      30.18R
PERU/GRISSOM   MOSUNNY   71  57  60 E3        30.16S
ROCHESTER +    SUNNY     75  54  46 E7        30.18S
SOUTH BEND     CLOUDY    68  53  58 CALM      30.19S
WARSAW +       CLOUDY    68  54  60 CALM      30.18F

$$

INZ006>009-017-018-025>027-272000-
NORTHEAST INDIANA

CITY           SKY/WX    TMP DP  RH WIND       PRES   REMARKS
ANGOLA *+      CLOUDY    70  61  73 CALM      30.18S
AUBURN +       CLOUDY    70  54  56 CALM      30.19S
FORT WAYNE     PTSUNNY   71  56  58 NE6       30.18S
HUNTINGTON +   CLOUDY    70  52  53 NE3       30.17S

$$

INZ028-029-035-036-043>045-051>053-272000-
WEST CENTRAL INDIANA

CITY           SKY/WX    TMP DP  RH WIND       PRES   REMARKS
CRAWFORDSVL +  MOSUNNY   73  53  48 S3        30.16R
GREENCASTLE +  MOSUNNY   73  52  46 CALM      30.16S
LAFAYETTE      MOSUNNY   73  54  51 CALM      30.16R
TERRE HAUTE    SUNNY     79  56  45 VRB6      30.15R

$$

INZ030>032-037>040-046>048-054>057-064-065-272000-
CENTRAL INDIANA

CITY           SKY/WX    TMP DP  RH WIND       PRES   REMARKS
ANDERSON       PTSUNNY   73  48  40 CALM      30.16
COLUMBUS       PTSUNNY   79  50  36 SE6       30.14F
FISHERS *+     PTSUNNY   73  59  60 CALM      30.15
FRANKFORT +    MOSUNNY   74  59  58 CALM      30.18R
INDIANAPOLIS   MOSUNNY   77  54  44 VRB5      30.13S
-EAGLE CREEK   PTSUNNY   76  55  48 VRB6      30.14R
KOKOMO *+      MOSUNNY   73  55  53 CALM      30.17S
MARION +       CLOUDY    71  46  41 E3        30.18R
MT COMFORT *+  MOSUNNY   75  52  43 CALM      30.16R
SHELBYVILLE    PTSUNNY   78  56  46 SE6       30.14S
ZIONSVILLE +   MOSUNNY   76  56  51 CALM      30.16R

$$

INZ033-034-041-042-049-050-058-059-272000-
EAST CENTRAL INDIANA

CITY           SKY/WX    TMP DP  RH WIND       PRES   REMARKS
MUNCIE         MOSUNNY   72  56  57 SE5       30.16S

$$

INZ060-061-067>069-081>083-085>088-272000-
SOUTHWEST INDIANA

CITY           SKY/WX    TMP DP  RH WIND       PRES   REMARKS
EVANSVILLE     MOSUNNY   79  56  45 E5        30.15R
HUNTINGBURG *+ MOSUNNY   79  59  50 NE7       30.14R
WASHINGTON +   MOSUNNY   79  50  35 CALM      30.14R

$$

INZ062-063-066-070>080-084-089>092-272000-
SOUTH CENTRAL AND SOUTHEAST INDIANA

CITY           SKY/WX    TMP DP  RH WIND       PRES   REMARKS
BLOOMINGTON    PTSUNNY   77  56  48 SE3       30.15R
MADISON *+     MOSUNNY   77  54  44 CALM      30.16S
NORTH VERNON + PTSUNNY   77  55  47 E6        30.15F
SEYMOUR +      MOSUNNY   79  57  47 SE6       30.13F

$$




USA.gov is the U.S. government's official web portal to all federal, state and local government web resources and services.